STARLINK-2617 (48689 NORAD) Tracking and Keplerian Element Data

This shows tracking and keplerian element data for the satellite.

Feedback or suggestion? Click here.




ElementValue
Catalog48689
NameSTARLINK-2617
Epoch Orbit1164
Epoch Day215.25002315
Epoch Year2021
RAAN84.3363
Inclination53.0466
Eccentricity0.0002349
Argument of Perigee19.4499
Mean Anonmoly155.0962
Mean Motion15.73258036
Decay Rate-9.845E-05
L11 48689U 21044BD 21215.25002315 -.00009845 00000-0 -65606-4 0 9990
L22 48689 53.0466 84.3363 0002349 19.4499 155.0962 15.73258036 11642

Live tracking and technical data element details for STARLINK-2617 (NORAD 48689). STARLINK-2617 can be tracked NOW for your location showing map with azimuth and elevation plus other details from your city location.

Track the satellite on the map from your city or location and see movement details for azimuth, elevation, latitude, longitude, range, height, and movement on the map or in text.







IsCatalogInMostPopularTable: catalog: 48689, numindb: 17
Update: records affected: 1



GetName: 48689 STARLINK-2617

Hit Count: updated at: Tue, 03 Aug 2021 19:35:44 GMT